Station: Hindmarsh Island  

  Atmospheric Gas Attenuation - ITU Rec 676-11   ----------------- dB/100km -----------------
Date Time Temp RH % AH g/m3 Dew Point Wind Direction Speed kph Gust kph Barometer mB Rainfall Since 9am 24GHz 47GHz 76GHz 122GHz 134GHz 241GHz
08/05 04:30 14.9 76 9.69 10.7 26 32 1028.8 0 21.8 27.9 44.4 116.5 112.9 389.2
08/05 04:20 14.8 76 9.63 10.6 28 32 1028.8 0 21.7 27.9 44.2 116.0 112.2 386.8
08/05 04:10 15 75 9.62 10.6 26 30 1028.8 0 21.7 27.8 44.0 115.6 111.8 385.3
08/05 04:00 15 70 8.98 9.6 32 41 1028.9 0 20.3 26.7 41.4 108.6 103.2 355.2
08/05 03:50 15 66 8.46 8.7 35 39 1028.9 0 19.2 25.9 39.3 103.0 96.3 331.2
08/05 03:40 14.9 70 8.92 9.5 37 43 1028.8 0 20.2 26.7 41.2 108.0 102.5 352.8
08/05 03:30 15.1 68 8.77 9.2 35 46 1028.8 0 19.9 26.4 40.5 106.2 100.3 345.0
08/05 03:20 15.1 72 9.29 10.1 32 37 1028.9 0 21.0 27.2 42.6 111.8 107.2 369.3
08/05 03:10 15.1 71 9.16 9.9 33 39 1028.8 0 20.7 27.0 42.1 110.4 105.4 363.1
08/05 03:00 15 72 9.23 10 33 43 1029 0 20.9 27.2 42.4 111.3 106.5 366.9
08/05 02:50 15.1 72 9.29 10.1 35 39 1029 0 21.0 27.2 42.6 111.8 107.2 369.3
08/05 02:40 15 73 9.36 10.2 32 33 1029 0 21.1 27.4 43.0 112.7 108.3 373.1
08/05 02:30 15.1 70 9.03 9.7 33 43 1028.9 0 20.4 26.8 41.6 109.0 103.7 357.1
08/05 02:20 14.9 72 9.18 9.9 35 41 1028.9 0 20.8 27.1 42.3 110.9 106.0 365.0
08/05 02:10 14.7 74 9.32 10.1 39 44 1029.1 0 21.1 27.4 43.0 112.7 108.2 372.6
08/05 02:00 14.9 74 9.43 10.3 33 48 1029.1 0 21.3 27.5 43.3 113.6 109.4 376.9
08/05 01:50 14.9 70 8.92 9.5 33 39 1029.1 0 20.2 26.7 41.2 108.1 102.5 352.9
08/05 01:40 14.8 70 8.87 9.4 32 33 1029.3 0 20.1 26.6 41.1 107.7 102.0 351.1
08/05 01:30 14.9 69 8.79 9.3 35 46 1029.2 0 19.9 26.5 40.7 106.7 100.8 346.9
08/05 01:20 14.9 70 8.92 9.5 39 41 1029.3 0 20.2 26.7 41.2 108.1 102.5 353.0
08/05 01:10 15.1 67 8.64 9 37 43 1029.4 0 19.6 26.2 40.0 104.8 98.6 339.2
08/05 01:00 14.9 69 8.79 9.3 32 39 1029.5 0 19.9 26.5 40.7 106.7 100.8 347.0
08/05 00:50 14.8 72 9.12 9.8 32 35 1029.4 0 20.6 27.1 42.1 110.4 105.4 362.8
08/05 00:40 14.8 71 8.99 9.6 37 41 1029.4 0 20.4 26.8 41.6 109.0 103.6 356.7
08/05 00:30 15 67 8.59 8.9 35 43 1029.4 0 19.5 26.1 39.9 104.4 98.1 337.3
08/05 00:20 14.4 77 9.52 10.4 28 33 1029.5 0 21.5 27.8 44.0 115.4 111.4 383.7
08/05 00:10 14.1 79 9.59 10.5 35 39 1029.5 0 21.7 28.1 44.4 116.6 112.8 388.6
08/05 00:00 14.6 76 9.51 10.4 39 46 1029.6 0 21.5 27.8 43.8 115.0 110.9 382.3
07/05 23:50 14.7 72 9.07 9.7 37 41 1029.5 0 20.5 27.0 42.0 110.0 104.8 361.0
07/05 23:40 15.1 69 8.9 9.5 32 43 1029.6 0 20.1 26.6 41.1 107.6 102.0 351.2
07/05 23:30 15.1 64 8.26 8.3 37 46 1029.6 0 18.8 25.6 38.5 100.8 93.7 321.9
07/05 23:20 15 66 8.46 8.7 37 46 1029.6 0 19.2 25.9 39.4 103.1 96.4 331.4
07/05 23:10 15.1 65 8.39 8.6 35 37 1029.7 0 19.1 25.8 39.0 102.2 95.4 327.8
07/05 23:00 14.9 66 8.41 8.6 35 46 1029.6 0 19.1 25.9 39.2 102.7 95.9 329.5
07/05 22:50 14.8 66 8.36 8.5 35 41 1029.6 0 19.0 25.8 39.1 102.3 95.3 327.7
07/05 22:40 14.8 66 8.36 8.5 37 41 1029.7 0 19.0 25.8 39.1 102.3 95.3 327.7
07/05 22:30 14.8 62 7.85 7.6 41 50 1029.7 0 17.9 25.0 37.1 96.9 88.7 304.6
07/05 22:20 14.8 63 7.98 7.8 41 48 1029.6 0 18.2 25.2 37.6 98.3 90.4 310.4
07/05 22:10 14.7 68 8.56 8.9 28 32 1029.8 0 19.4 26.2 39.9 104.6 98.1 337.3
07/05 22:00 14.6 69 8.63 9 30 39 1029.9 0 19.6 26.3 40.3 105.4 99.1 341.0
07/05 21:50 14.5 70 8.71 9.1 30 35 1029.8 0 19.8 26.5 40.6 106.4 100.3 345.1
07/05 21:40 14.6 70 8.76 9.2 26 30 1029.9 0 19.9 26.5 40.8 106.8 100.9 347.0
07/05 21:30 14.5 67 8.33 8.5 32 41 1029.8 0 19.0 25.9 39.1 102.4 95.3 327.6
07/05 21:20 14.5 65 8.08 8 28 35 1029.8 0 18.4 25.5 38.1 99.7 92.0 316.2
07/05 21:10 14.6 65 8.13 8.1 28 32 1029.9 0 18.5 25.5 38.3 100.1 92.6 318.1
07/05 21:00 14.3 63 7.74 7.4 32 39 1029.9 0 17.7 25.0 36.9 96.4 87.9 301.6
07/05 20:50 14.1 64 7.77 7.4 32 37 1030 0 17.8 25.1 37.1 97.0 88.5 303.7
07/05 20:40 14.4 64 7.91 7.7 35 39 1029.9 0 18.1 25.2 37.5 98.1 90.0 308.9
07/05 20:30 14.1 66 8.01 7.9 33 44 1029.9 0 18.3 25.5 38.0 99.5 91.6 314.6
07/05 20:20 13.6 78 9.18 9.8 26 28 1030 0 20.8 27.5 43.0 112.8 107.9 371.5
07/05 20:10 13.4 80 9.3 10 19 20 1030.1 0 21.1 27.8 43.7 114.5 109.8 378.2
07/05 20:00 13.3 80 9.24 9.9 20 28 1030 0 21.0 27.7 43.5 114.0 109.1 375.8
07/05 19:50 13.1 82 9.36 10.1 19 20 1030.1 0 21.2 28.0 44.1 115.6 111.1 382.6
07/05 19:40 12.9 84 9.47 10.3 22 26 1030.2 0 21.5 28.3 44.7 117.2 112.9 388.9
07/05 19:30 12.9 83 9.36 10.1 30 44 1030.3 0 21.2 28.1 44.2 115.9 111.4 383.6
07/05 19:20 13.8 75 8.94 9.5 33 41 1030.3 0 20.3 27.1 42.0 109.9 104.4 359.2
07/05 19:10 13.8 72 8.58 8.8 35 41 1030.1 0 19.5 26.5 40.5 106.0 99.5 342.2
07/05 19:00 13.6 73 8.59 8.9 33 43 1030.1 0 19.6 26.6 40.6 106.4 99.9 343.5
07/05 18:50 14.5 65 8.08 8 33 39 1030.1 0 18.4 25.5 38.1 99.8 92.1 316.2
07/05 18:40 14.6 61 7.63 7.2 26 32 1030.1 0 17.5 24.8 36.3 94.9 86.2 295.6
07/05 18:30 14.6 59 7.38 6.7 32 39 1029.9 0 16.9 24.4 35.4 92.3 83.0 284.4
07/05 18:20 14.5 59 7.34 6.6 28 32 1030 0 16.9 24.3 35.2 92.1 82.6 283.0
07/05 18:10 14.5 58 7.21 6.3 33 39 1029.8 0 16.6 24.1 34.7 90.7 80.9 277.2
07/05 18:00 14.5 58 7.21 6.3 32 41 1029.7 0 16.6 24.1 34.7 90.7 80.9 277.2
07/05 17:50 13.9 64 7.67 7.2 32 35 1029.7 0 17.6 25.0 36.8 96.2 87.4 299.9
07/05 17:40 13.3 72 8.32 8.4 19 20 1029.9 0 19.0 26.2 39.7 103.8 96.7 332.2
07/05 17:30 13.8 69 8.22 8.2 32 39 1029.7 0 18.8 25.9 39.0 102.1 94.7 325.4
07/05 17:20 13.7 67 7.93 7.7 33 39 1029.6 0 18.2 25.5 37.9 99.1 91.0 312.4
07/05 17:10 13.9 70 8.39 8.5 32 39 1029.7 0 19.1 26.1 39.6 103.8 96.8 332.8
07/05 17:00 13.5 73 8.54 8.8 24 32 1029.8 0 19.5 26.5 40.4 105.9 99.3 341.6
07/05 16:50 13.7 70 8.29 8.3 35 43 1029.7 0 18.9 26.0 39.3 103.0 95.8 329.0
07/05 16:40 14.5 61 7.59 7.1 30 35 1029.6 0 17.4 24.7 36.2 94.6 85.7 294.0
07/05 16:30 14.5 63 7.84 7.5 30 37 1029.7 0 17.9 25.1 37.2 97.2 88.9 305.3
07/05 16:20 14.6 64 8.01 7.9 28 32 1029.6 0 18.3 25.3 37.8 98.8 91.0 312.5
07/05 16:10 14.4 60 7.42 6.7 30 32 1029.6 0 17.0 24.5 35.6 93.0 83.7 286.8
07/05 16:00 15 65 8.33 8.5 26 33 1029.6 0 18.9 25.7 38.9 101.7 94.7 325.5
07/05 15:50 15.4 61 8.01 7.9 26 33 1029.5 0 18.2 25.1 37.4 97.8 90.1 309.4
07/05 15:40 15 64 8.21 8.3 22 28 1029.6 0 18.7 25.5 38.4 100.4 93.1 320.0
07/05 15:30 13.7 65 7.7 7.2 24 35 1029.6 0 17.7 25.1 37.0 96.7 88.0 302.0
07/05 15:20 14.1 65 7.89 7.6 28 32 1029.7 0 18.0 25.3 37.6 98.2 90.0 309.1
07/05 15:10 14.3 66 8.11 8 39 43 1029.6 0 18.5 25.6 38.3 100.3 92.7 318.3
07/05 15:00 14.5 61 7.59 7.1 24 41 1029.6 0 17.4 24.7 36.2 94.6 85.7 294.0
07/05 14:50 14.7 56 7.05 6 33 44 1029.5 0 16.2 23.8 34.0 88.8 78.7 269.4
07/05 14:40 15.2 55 7.14 6.2 30 32 1029.5 0 16.4 23.8 34.2 89.2 79.3 271.7
07/05 14:30 15.3 53 6.92 5.8 32 41 1029.5 0 15.9 23.5 33.3 86.9 76.5 261.8
07/05 14:20 15.6 54 7.18 6.3 30 32 1029.6 0 16.5 23.8 34.2 89.2 79.4 272.1
07/05 14:10 16 53 7.22 6.4 30 35 1029.6 0 16.5 23.7 34.1 89.1 79.5 272.5
07/05 14:00 15.4 53 6.96 5.9 35 43 1029.6 0 16.0 23.5 33.4 87.2 76.9 263.2
07/05 13:50 15.4 61 8.01 7.9 33 39 1029.6 0 18.2 25.1 37.4 97.9 90.1 309.4
07/05 13:40 15 61 7.82 7.5 30 35 1029.6 0 17.9 24.9 36.9 96.4 88.1 302.4
07/05 13:30 14.7 65 8.18 8.2 20 30 1029.8 0 18.6 25.6 38.4 100.5 93.1 319.9
07/05 13:20 15.2 63 8.18 8.2 19 22 1029.8 0 18.6 25.4 38.2 99.9 92.5 317.9
07/05 13:10 15.4 59 7.75 7.4 22 30 1029.9 0 17.7 24.7 36.4 95.2 86.8 297.9
07/05 13:00 16 57 7.77 7.5 20 32 1029.9 0 17.7 24.6 36.2 94.7 86.4 296.5
07/05 12:50 15.2 59 7.66 7.2 20 26 1029.9 0 17.5 24.6 36.2 94.5 85.9 294.6
07/05 12:40 14.7 59 7.43 6.8 24 30 1030.1 0 17.0 24.4 35.5 92.8 83.5 286.3
07/05 12:30 15.1 57 7.35 6.7 30 43 1030.1 0 16.9 24.2 35.0 91.5 82.1 281.3
07/05 12:20 15 57 7.31 6.6 32 35 1030.2 0 16.8 24.2 34.9 91.2 81.7 280.0
07/05 12:10 15.3 57 7.44 6.8 33 37 1030.3 0 17.0 24.3 35.3 92.2 83.0 284.6
07/05 12:00 15.1 55 7.1 6.1 33 39 1030.3 0 16.3 23.8 34.1 89.0 79.0 270.5

Last Refresh: 08-May-2026 04:42:13

Bureau of Meteorology